Hickory, NC

7:02 AM EDT on October 20, 2017 (GMT -0400)
Hickory Regional

Weather History for KHKY - December, 2011

Change the Weather History Date:

Wednesday, December 14, 2011

  Actual Average Record
Temperature  
Mean Temperature 56 °F -  
Max Temperature 63 °F 51 °F 72 °F (1984)
Min Temperature 48 °F 31 °F 13 °F (1960)
Degree Days  
Heating Degree Days 10    
Growing Degree Days 6 (Base 50)    
Moisture  
Dew Point 46 °F    
Average Humidity 76    
Maximum Humidity 89    
Minimum Humidity 60    
Precipitation  
Precipitation 0.00 in - - ()
Sea Level Pressure  
Sea Level Pressure 30.30 in    
Wind  
Wind Speed 0 mph (ESE)    
Max Wind Speed 4 mph    
Max Gust Speed -    
Visibility 10 miles    
Events      
Averages and records for this station are not official NWS values.
T = Trace of Precipitation, MM = Missing Value Source: NWS Daily Summary

Daily Weather History Graph

Daily Weather History Graph

Search for Another Location

Airport or City:

Trip Planner

Search our weather history database for the weather conditions in past years. The results will help you decide how hot, cold, wet, or windy it might be!

Date:

Astronomy

Dec. 14, 2011 Rise Set
Actual Time 7:27 AM EST 5:13 PM EST
Civil Twilight 6:58 AM EST 5:41 PM EST
Nautical Twilight 6:26 AM EST 6:13 PM EST
Astronomical Twilight 5:55 AM EST 6:44 PM EST
Moon 9:25 PM EST (12/14) 10:16 AM EST (12/14)
Length of Visible Light 10h 42m
Length of Day
9h 45m
Waning Gibbous, 83% of the Moon is Illuminated
Dec 14
Waning Gibbous
Dec 17
Last Quarter
Dec 24
New
Jan 1
First Quarter
Jan 9
Full

Hourly Weather History & Observations

Time (EST) Temp. Dew Point Humidity Pressure Visibility Wind Dir Wind Speed Gust Speed Precip Events Conditions
12:53 AM 48.9 °F 44.1 °F 83% 30.32 in 10.0 mi Calm Calm - N/A   Overcast
1:53 AM 48.9 °F 44.1 °F 83% 30.32 in 10.0 mi Calm Calm - N/A   Overcast
2:53 AM 48.2 °F 44.6 °F 87% 30.35 in 10.0 mi Calm Calm - N/A   Overcast
3:53 AM 48.9 °F 44.1 °F 83% 30.31 in 10.0 mi Calm Calm - N/A   Overcast
4:53 AM 48.9 °F 45.0 °F 86% 30.31 in 10.0 mi Calm Calm - N/A   Overcast
5:53 AM 48.9 °F 44.1 °F 83% 30.32 in 10.0 mi Calm Calm - N/A   Overcast
6:53 AM 48.9 °F 44.1 °F 83% 30.34 in 10.0 mi Calm Calm - N/A   Overcast
7:53 AM 48.9 °F 44.1 °F 83% 30.33 in 10.0 mi Calm Calm - N/A   Overcast
8:53 AM 51.1 °F 44.1 °F 77% 30.35 in 10.0 mi Calm Calm - N/A   Overcast
9:53 AM 51.8 °F 44.6 °F 76% 30.40 in 10.0 mi Calm Calm - N/A   Overcast
10:53 AM 53.1 °F 43.0 °F 69% 30.36 in 10.0 mi Calm Calm - N/A   Overcast
11:53 AM 55.0 °F 44.1 °F 67% 30.33 in 10.0 mi Calm Calm - N/A   Overcast
12:53 PM 57.0 °F 45.0 °F 64% 30.30 in 10.0 mi Variable 3.5 mph - N/A   Overcast
1:53 PM 60.1 °F 46.9 °F 62% 30.27 in 10.0 mi Variable 3.5 mph - N/A   Clear
2:53 PM 61.0 °F 48.0 °F 62% 30.25 in 10.0 mi ESE 3.5 mph - N/A   Clear
3:53 PM 63.0 °F 48.9 °F 60% 30.25 in 10.0 mi Variable 3.5 mph - N/A   Clear
4:53 PM 61.0 °F 48.9 °F 64% 30.25 in 10.0 mi Calm Calm - N/A   Clear
5:53 PM 57.9 °F 48.9 °F 72% 30.25 in 10.0 mi Calm Calm - N/A   Clear
6:53 PM 57.0 °F 48.9 °F 74% 30.27 in 10.0 mi Calm Calm - N/A   Clear
7:53 PM 55.0 °F 48.0 °F 77% 30.27 in 10.0 mi Calm Calm - N/A   Clear
8:53 PM 53.1 °F 46.9 °F 80% 30.27 in 10.0 mi Calm Calm - N/A   Clear
9:53 PM 53.1 °F 48.0 °F 83% 30.26 in 10.0 mi Calm Calm - N/A   Clear
10:53 PM 50.0 °F 46.9 °F 89% 30.25 in 10.0 mi Calm Calm - N/A   Clear
11:53 PM 51.1 °F 46.9 °F 86% 30.23 in 10.0 mi Calm Calm - N/A   Clear